IQ1ZW Weather Reports


time (UTC)temp
C
wind
direction
speed
KPH
gust
KPH
rain 1hr
cm
rain 24hr
cm
rain mn
cm
humidity
%
barometer
mb
20260506203735 15 180 9.7 24.1 0.00 1.24 0.00 83 1006.8
20260506203239 15 188 19.3 20.9 0.00 1.24 0.00 83 1006.8
20260506202733 15 150 12.9 20.9 0.00 1.24 0.00 83 1006.7
20260506202232 15 210 9.7 22.5 0.00 1.24 0.00 83 1006.7
20260506201733 15 184 6.4 22.5 0.00 1.24 0.00 83 1006.8
20260506201232 15 309 6.4 16.1 0.00 1.24 0.00 83 1006.7
20260506200733 15 150 9.7 20.9 0.00 1.24 0.00 83 1006.6
20260506200232 15 149 14.5 17.7 0.00 1.24 0.00 83 1006.6
20260506195738 15 165 16.1 19.3 0.00 1.24 0.00 83 1006.4
20260506195233 15 153 9.7 22.5 0.00 1.24 0.00 83 1006.4
20260506194733 15 122 6.4 17.7 0.00 1.24 0.00 83 1006.4
20260506194232 15 143 8.0 17.7 0.00 1.24 0.00 83 1006.3
20260506193736 15 175 11.3 25.7 0.00 1.24 0.00 83 1006.3
20260506193233 15 165 17.7 25.7 0.00 1.24 0.00 83 1006.3
20260506192733 15 182 8.0 19.3 0.00 1.24 0.00 83 1006.2
20260506192233 15 164 12.9 20.9 0.00 1.24 0.00 83 1006.1
20260506191733 15 180 8.0 22.5 0.00 1.24 0.00 83 1006.1
20260506191233 15 182 11.3 20.9 0.00 1.24 0.00 84 1006.0
20260506190736 15 180 6.4 12.9 0.00 1.24 0.00 85 1006.0
20260506190239 15 188 9.7 12.9 0.00 1.24 0.00 85 1005.8
20260506185733 15 167 11.3 27.4 0.00 1.24 0.00 85 1005.8
20260506185233 15 140 11.3 17.7 0.00 1.24 0.00 85 1005.7
20260506184736 15 174 16.1 19.3 0.00 1.24 0.00 86 1005.6
20260506184233 15 164 11.3 22.5 0.00 1.24 0.00 86 1005.7
20260506183733 15 144 9.7 27.4 0.00 1.24 0.00 86 1005.6
20260506183234 15 167 14.5 24.1 0.00 1.24 0.00 86 1005.5
20260506182739 15 182 3.2 24.1 0.00 1.24 0.00 87 1005.4
20260506182233 15 206 9.7 20.9 0.00 1.24 0.00 87 1005.3
20260506181733 15 142 9.7 20.9 0.00 1.24 0.00 87 1005.3
20260506181236 15 208 17.7 20.9 0.00 1.24 0.00 87 1005.2
20260506180733 15 118 12.9 19.3 0.00 1.24 0.00 87 1005.0
20260506180233 15 97 8.0 19.3 0.00 1.24 0.00 87 1004.9
20260506175736 15 187 14.5 17.7 0.00 1.24 0.00 87 1004.9
20260506175237 15 157 12.9 19.3 0.00 1.24 0.00 87 1004.9
20260506174733 15 168 6.4 29.0 0.00 1.24 0.00 87 1004.9
20260506174233 15 135 20.9 20.9 0.00 1.24 0.00 87 1004.8
20260506173733 15 146 12.9 25.7 0.00 1.24 0.00 86 1004.8
20260506173233 15 199 17.7 25.7 0.00 1.24 0.00 87 1004.9
20260506172733 15 163 8.0 20.9 0.00 1.24 0.00 86 1004.8
20260506172236 15 143 16.1 27.4 0.00 1.24 0.00 86 1004.8
20260506171739 15 154 20.9 25.7 0.00 1.24 0.00 85 1004.8
20260506171233 15 191 14.5 29.0 0.00 1.24 0.00 85 1004.7
20260506170739 16 209 19.3 32.2 0.00 1.24 0.00 84 1004.7
20260506170240 16 139 14.5 27.4 0.00 1.24 0.00 84 1004.7
20260506165733 16 189 14.5 29.0 0.00 1.24 0.00 84 1004.6
20260506165236 16 182 22.5 33.8 0.00 1.24 0.00 84 1004.7
20260506164734 16 185 24.1 30.6 0.00 1.24 0.00 84 1004.8
20260506164242 16 196 25.7 30.6 0.00 1.24 0.00 84 1004.9
20260506163733 16 212 20.9 29.0 0.00 1.24 0.00 84 1004.8
20260506163233 16 165 17.7 29.0 0.00 1.24 0.00 84 1004.7
20260506162734 16 130 11.3 30.6 0.00 1.24 0.00 85 1004.8
20260506162233 16 164 9.7 30.6 0.00 1.24 0.00 84 1004.7
20260506161733 16 198 19.3 29.0 0.00 1.24 0.00 84 1004.7
20260506161237 16 202 11.3 24.1 0.00 1.24 0.00 84 1004.7
20260506160736 16 187 11.3 25.7 0.00 1.24 0.00 84 1004.7
20260506160236 16 167 8.0 27.4 0.00 1.24 0.00 86 1004.7
20260506155733 16 99 9.7 27.4 0.00 1.24 0.00 86 1004.6
20260506155233 16 213 14.5 32.2 0.00 1.24 0.00 85 1004.6
20260506154733 16 208 8.0 27.4 0.00 1.24 0.00 85 1004.6
20260506154236 16 149 12.9 24.1 0.00 1.24 0.00 85 1004.7
20260506153733 16 154 9.7 25.7 0.00 1.24 0.00 85 1004.7
20260506153233 16 164 6.4 25.7 0.00 1.24 0.00 86 1004.6
20260506152733 16 164 16.1 24.1 0.00 1.24 0.00 85 1004.5
20260506152233 16 164 16.1 29.0 0.00 1.24 0.00 85 1004.6
20260506151739 16 237 6.4 29.0 0.00 1.24 0.00 85 1004.6
20260506151233 16 208 16.1 25.7 0.00 1.24 0.00 85 1004.6
20260506150733 16 154 9.7 214.0 0.00 1.24 0.00 85 1004.6
20260506150239 16 220 6.4 25.7 0.00 1.24 0.00 85 1004.5
20260506145733 16 196 11.3 25.7 0.00 1.24 0.00 83 1004.6
20260506145236 16 203 9.7 29.0 0.00 1.24 0.00 85 1004.5
20260506144736 16 210 20.9 25.7 0.00 1.24 0.00 87 1004.5
20260506144233 16 220 16.1 27.4 0.00 1.24 0.00 86 1004.6
20260506143739 16 201 22.5 29.0 0.00 1.24 0.00 85 1004.6
20260506143236 16 163 11.3 24.1 0.00 1.24 0.00 86 1004.6
20260506142733 16 150 17.7 25.7 0.00 1.24 0.00 85 1004.5
20260506142236 16 163 20.9 30.6 0.00 1.24 0.00 83 1004.5
20260506141733 16 163 12.9 25.7 0.00 1.24 0.00 84 1004.6
20260506141237 17 139 11.3 19.3 0.00 1.24 0.00 86 1004.6
20260506140733 16 198 24.1 29.0 0.00 1.24 0.00 86 1004.7
20260506140233 16 163 8.0 25.7 0.00 1.24 0.00 84 1004.7
20260506135736 17 199 14.5 25.7 0.00 1.24 0.00 83 1004.8
20260506135233 17 172 12.9 25.7 0.00 1.24 0.00 82 1004.8
20260506134737 17 144 6.4 22.5 0.00 1.24 0.00 84 1004.8
20260506134237 17 198 14.5 22.5 0.00 1.24 0.00 82 1004.8
20260506133736 17 160 9.7 25.7 0.00 1.24 0.00 83 1004.8
20260506133236 17 167 9.7 29.0 0.00 1.24 0.00 83 1004.8
20260506132740 16 187 12.9 24.1 0.00 1.24 0.00 82 1004.9
20260506132233 17 195 8.0 27.4 0.00 1.24 0.00 85 1004.8
20260506131736 17 208 14.5 22.5 0.00 1.24 0.00 84 1004.9
20260506131236 17 250 3.2 22.5 0.00 1.24 0.00 86 1004.8
20260506130739 17 203 11.3 20.9 0.00 1.24 0.00 86 1004.9
20260506130233 16 208 9.7 20.9 0.00 1.24 0.00 88 1004.8
20260506125733 17 202 22.5 25.7 0.00 1.24 0.00 86 1004.9
20260506125236 17 175 11.3 20.9 0.00 1.24 0.00 87 1004.8
20260506124734 17 196 11.3 20.9 0.00 1.24 0.00 89 1004.8
20260506124242 16 216 17.7 27.4 0.00 1.24 0.00 90 1004.8
20260506123742 16 160 12.9 27.4 0.00 1.24 0.00 90 1004.7
20260506123237 16 146 17.7 27.4 0.00 1.24 0.00 90 1004.6
20260506122734 16 185 17.7 27.4 0.00 1.24 0.00 89 1004.6
20260506122236 17 196 3.2 24.1 0.00 1.24 0.00 90 1004.6
20260506121733 16 196 12.9 25.7 0.00 1.24 0.00 90 1004.5
20260506121236 16 170 16.1 27.4 0.00 1.24 0.00 91 1004.5
20260506120736 16 156 9.7 30.6 0.00 1.24 0.00 90 1004.4
20260506120237 16 185 16.1 24.1 0.00 1.24 0.00 91 1004.5
20260506115736 16 206 14.5 22.5 0.00 1.24 0.00 91 1004.5
20260506115234 16 194 8.0 22.5 0.00 1.24 0.00 91 1004.5
20260506114736 16 201 20.9 24.1 0.00 1.24 0.00 91 1004.5
20260506114234 16 199 8.0 27.4 0.00 1.24 0.00 91 1004.5
20260506113737 16 198 20.9 27.4 0.00 1.24 0.00 91 1004.5
20260506113234 16 199 17.7 30.6 0.00 1.24 0.00 90 1004.5
20260506112740 16 213 19.3 30.6 0.00 1.24 0.00 90 1004.5
20260506112237 16 198 17.7 25.7 0.00 1.24 0.00 90 1004.4
20260506111734 16 163 12.9 29.0 0.00 1.24 0.00 90 1004.4
20260506111234 16 195 27.4 32.2 0.00 1.24 0.00 90 1004.5
20260506110734 16 181 20.9 22.5 0.00 1.24 0.00 90 1004.4
20260506110234 16 168 6.4 29.0 0.00 1.24 0.00 89 1004.5
20260506105734 16 209 14.5 27.4 0.00 1.24 0.00 90 1004.6
20260506105234 16 192 14.5 17.7 0.00 1.24 0.00 90 1004.5
20260506104737 16 175 4.8 25.7 0.00 1.24 0.00 90 1004.4
20260506104237 16 180 8.0 22.5 0.00 1.24 0.00 90 1004.5
20260506103737 16 181 20.9 27.4 0.00 1.24 0.00 90 1004.5
20260506103237 16 220 19.3 24.1 0.00 1.24 0.00 89 1004.5
20260506102734 16 191 9.7 24.1 0.00 1.24 0.00 89 1004.3
20260506102237 16 185 16.1 25.7 0.00 1.24 0.00 89 1004.4
20260506101736 16 174 16.1 22.5 0.00 1.24 0.00 89 1004.3
20260506101234 16 171 14.5 22.5 0.00 1.24 0.00 89 1004.3
20260506100735 16 137 14.5 16.1 0.00 1.24 0.00 90 1004.3
20260506100234 16 178 9.7 22.5 0.00 1.24 0.00 89 1004.4
20260506095743 16 157 8.0 19.3 0.00 1.24 0.00 90 1004.4
20260506095234 16 156 4.8 19.3 0.00 1.24 0.00 90 1004.4
20260506094740 16 158 9.7 17.7 0.00 1.27 0.00 90 1004.3
20260506094234 16 151 8.0 17.7 0.00 1.27 0.00 90 1004.3
20260506093740 16 219 6.4 20.9 0.00 1.27 0.00 90 1004.3
20260506093234 16 195 17.7 20.9 0.00 1.27 0.00 90 1004.3
20260506092740 16 198 9.7 16.1 0.00 1.27 0.00 91 1004.2
20260506092234 16 192 14.5 20.9 0.00 1.27 0.00 91 1004.2
20260506091740 16 194 17.7 17.7 0.00 1.27 0.00 91 1004.2
20260506091238 16 198 4.8 16.1 0.00 1.27 0.00 91 1004.2
20260506090737 16 222 16.1 16.1 0.00 1.27 0.00 91 1004.2
20260506090234 16 225 14.5 14.5 0.00 1.27 0.00 91 1004.1
20260506085734 15 192 8.0 19.3 0.00 1.27 0.00 91 1004.1
20260506085234 15 184 9.7 20.9 0.00 1.27 0.00 92 1004.1
20260506084737 15 229 4.8 14.5 0.00 1.27 0.00 93 1003.9
20260506084237 15 191 9.7 17.7 0.00 1.27 0.00 93 1003.8
20260506083734 15 215 11.3 19.3 0.00 1.27 0.00 93 1003.8
20260506083237 15 185 9.7 20.9 0.00 1.27 0.00 94 1003.8
20260506082734 15 189 11.3 20.9 0.00 1.27 0.00 94 1003.7
20260506082237 15 192 12.9 19.3 0.00 1.27 0.00 95 1003.7
20260506081737 15 174 8.0 17.7 0.00 1.27 0.00 95 1003.6
20260506081237 15 172 17.7 24.1 0.00 1.27 0.00 95 1003.5
20260506080740 16 150 9.7 30.6 0.00 1.27 0.00 95 1003.6
20260506080237 16 209 20.9 25.7 0.00 1.27 0.00 95 1003.6
20260506073237 16 206 32.2 37.0 0.08 1.27 0.00 96 1003.6
20260506072734 16 164 11.3 33.8 0.10 1.27 0.00 96 1003.3
20260506072238 16 184 14.5 40.2 0.10 1.27 0.00 96 1003.2
20260506071735 16 165 30.6 40.2 0.10 1.27 0.00 96 1003.2
20260506071237 16 194 35.4 43.5 0.10 1.27 0.00 96 1003.2
20260506070743 16 180 16.1 38.6 0.10 1.27 0.00 96 1003.0
20260506070240 16 153 17.7 41.8 0.10 1.27 0.00 95 1002.9
20260506062237 15 154 20.9 43.5 0.00 1.22 0.00 93 1002.5
20260506061734 15 150 20.9 32.2 0.00 1.22 0.00 93 1002.7
20260506061243 15 119 14.5 27.4 0.00 1.30 0.00 92 1002.6
20260506060737 15 194 19.3 35.4 0.00 1.30 0.00 92 1002.7
20260506060234 15 129 9.7 24.1 0.00 1.35 0.00 92 1002.7
20260506051234 13 154 1.6 8.0 0.03 2.16 0.00 93 1003.2
20260506050734 13 181 0.0 4.8 0.05 2.16 0.00 93 1003.1
20260506050235 13 161 1.6 11.3 0.08 2.16 0.00 94 1003.1
20260506044734 13 163 0.0 3.2 0.08 2.24 0.00 93 1003.0
20260506044234 13 157 3.2 6.4 0.08 2.29 0.00 93 1003.0
20260506043734 13 246 0.0 4.8 0.08 2.36 0.00 92 1003.2
20260506043234 13 129 1.6 4.8 0.08 2.46 0.00 92 1003.4
20260506042734 13 71 0.0 3.2 0.08 2.54 0.00 92 1003.3
20260506042234 13 71 1.6 3.2 0.08 2.62 0.00 92 1003.5
20260506041734 13 88 0.0 4.8 0.08 2.72 0.00 91 1003.6
20260506041234 13 73 1.6 1.6 0.08 2.79 0.00 91 1003.8
20260506040737 13 82 1.6 4.8 0.05 2.82 0.00 91 1004.2
20260506040234 13 82 3.2 4.8 0.03 2.92 0.00 92 1003.9
20260506035737 13 130 0.0 4.8 0.00 3.00 0.00 91 1003.9
20260506035237 13 129 0.0 8.0 0.00 3.00 0.00 91 1003.9
20260506034734 13 323 1.6 4.8 0.00 3.02 0.00 91 1003.9
20260506034234 13 323 0.0 4.8 0.00 3.10 0.00 91 1003.7
20260506033738 13 316 0.0 4.8 0.00 3.17 0.00 91 1003.6
20260506033238 13 319 0.0 6.4 0.00 3.17 0.00 90 1003.5
20260506032738 13 315 1.6 9.7 0.00 3.20 0.00 90 1003.5
20260506032241 13 338 4.8 14.5 0.00 3.28 0.00 90 1003.4
20260506031734 13 347 4.8 9.7 0.03 3.35 0.00 90 1003.5
20260506031238 13 39 1.6 17.7 0.08 3.40 0.00 90 1003.6
20260506030744 12 21 6.4 11.3 0.08 3.45 0.00 91 1003.7
20260506030235 13 357 3.2 9.7 0.10 3.48 0.00 91 1003.7
20260506025735 12 113 1.6 8.0 0.13 3.48 0.00 92 1003.9
20260506025235 13 208 3.2 11.3 0.18 3.48 0.00 92 1004.0
20260506024738 13 216 4.8 11.3 0.23 3.51 0.00 93 1004.2
20260506024241 12 111 3.2 11.3 0.30 3.53 0.00 93 1004.4
20260506023738 12 320 1.6 6.4 0.36 3.56 0.00 93 1004.6
20260506023241 12 154 0.0 4.8 0.41 3.56 0.00 93 1004.7
20260506022741 12 142 1.6 9.7 0.46 3.58 0.00 93 1004.8
20260506022235 12 255 0.0 6.4 0.46 3.63 0.00 94 1004.8
20260506021735 12 161 0.0 9.7 0.53 3.63 0.00 94 1004.9
20260506021235 12 184 3.2 12.9 0.64 3.61 0.00 94 1004.9
20260506020735 12 282 8.0 11.3 0.64 3.61 0.00 94 1005.1
20260506020234 12 50 4.8 16.1 0.64 3.58 0.00 94 1004.9
20260506015734 12 358 12.9 20.9 0.61 3.58 0.00 94 1004.9
20260506015234 12 350 11.3 12.9 0.58 3.56 0.00 94 1005.2
20260506014731 12 343 6.4 16.1 0.56 3.51 0.00 94 1005.4
20260506014231 13 1 12.9 17.7 0.46 3.45 0.00 92 1005.5
20260506013732 14 355 6.4 11.3 0.41 3.40 0.00 94 1005.5
20260506013240 14 341 8.0 8.0 0.36 3.35 0.00 94 1005.8
20260506012737 14 336 4.8 6.4 0.30 3.33 0.00 94 1005.8
20260506012238 14 347 4.8 6.4 0.28 3.30 0.00 94 1005.7
20260506011734 14 5 0.0 4.8 0.20 3.25 0.00 94 1005.6
20260506011231 14 4 3.2 9.7 0.08 3.10 0.00 94 1005.4
20260506010732 14 355 3.2 8.0 0.08 3.10 0.00 93 1005.1
20260506010237 14 227 3.2 4.8 0.08 3.12 0.00 93 1005.2
20260506005737 14 149 3.2 4.8 0.08 3.15 0.00 93 1005.2
20260506005241 14 149 1.6 6.4 0.03 3.10 0.00 93 1005.1
20260506004735 15 151 6.4 12.9 0.03 3.12 0.00 93 1005.3
20260506004232 15 132 9.7 20.9 0.03 3.12 0.00 93 1005.5
20260506003738 15 184 9.7 12.9 0.03 3.12 0.00 93 1005.6
20260506003235 15 94 4.8 17.7 0.03 3.12 0.00 93 1005.4
20260506002731 15 130 6.4 6.4 0.03 3.12 0.00 94 1005.3
20260506002235 15 137 0.0 9.7 0.03 3.12 0.00 94 1005.2
20260506001738 15 120 0.0 3.2 0.03 3.12 0.00 94 1005.1
20260506001232 15 129 0.0 1.6 0.00 3.10 0.00 94 1005.4
20260506000732 15 133 0.0 3.2 0.00 3.10 0.00 94 1005.3
20260506000233 15 133 1.6 4.8 0.00 3.10 0.00 94 1005.4
20260505235736 15 133 0.0 4.8 0.00 3.10 0.00 94 1005.6
20260505235241 15 136 0.0 0.0 0.00 3.10 0.00 94 1005.5
20260505234732 15 136 0.0 1.6 0.00 3.10 0.00 94 1005.7
20260505234232 15 136 0.0 4.8 0.00 3.10 0.00 95 1005.9
20260505233732 15 136 0.0 9.7 0.00 3.10 0.00 95 1006.1
20260505233232 15 156 3.2 9.7 0.00 3.10 0.00 94 1006.2
20260505232735 15 150 1.6 8.0 0.00 3.10 0.00 94 1006.2
20260505232232 15 163 4.8 12.9 0.00 3.10 0.00 94 1006.4
20260505231738 15 170 3.2 12.9 0.08 3.10 0.00 94 1006.4
20260505231232 15 196 6.4 12.9 0.13 3.10 0.00 94 1006.5
20260505230732 15 202 1.6 12.9 0.18 3.10 0.00 94 1006.6
20260505230235 15 220 3.2 6.4 0.18 3.10 0.00 94 1006.6
20260505225735 15 227 6.4 8.0 0.18 3.10 0.00 94 1006.6
20260505225232 15 225 3.2 9.7 0.18 3.10 0.00 94 1006.5
20260505224732 15 222 1.6 8.0 0.18 3.10 0.00 93 1006.6
20260505224241 15 229 3.2 14.5 0.15 3.07 0.00 93 1006.8
20260505223741 15 229 6.4 11.3 0.15 3.07 0.00 93 1006.8
20260505223233 15 203 4.8 12.9 0.15 3.07 0.00 92 1006.8
20260505222732 16 177 3.2 29.0 0.15 3.07 0.00 92 1006.9
20260505222235 16 198 14.5 17.7 0.15 3.07 0.00 91 1006.9
20260505221732 16 279 3.2 8.0 0.08 3.00 0.00 89 1007.0
20260505221235 16 171 0.0 3.2 0.03 2.95 0.00 89 1006.9
20260505220734 16 171 0.0 3.2 0.00 2.90 0.00 89 1006.9
20260505220238 16 171 0.0 6.4 0.00 2.90 0.00 89 1006.9
20260505215732 16 184 1.6 4.8 0.00 2.90 0.00 90 1006.8
20260505215232 16 129 1.6 3.2 0.00 2.90 0.00 89 1007.0
20260505214738 16 129 1.6 3.2 0.00 2.90 0.00 90 1006.9
20260505214233 16 130 1.6 17.7 0.00 2.90 0.00 90 1007.0
20260505213738 16 172 6.4 12.9 0.00 2.90 0.00 89 1007.1
20260505213235 16 157 1.6 14.5 0.00 2.90 0.00 89 1007.2
20260505212738 16 175 4.8 6.4 0.00 2.90 0.00 89 1007.2
20260505212232 16 147 0.0 8.0 0.00 2.90 0.00 90 1007.2
20260505211732 16 135 0.0 8.0 0.00 2.90 0.00 90 1007.3
20260505211232 16 135 1.6 9.7 0.00 2.90 0.00 90 1007.2
20260505210735 16 161 9.7 11.3 0.00 2.90 0.00 90 1007.3
20260505210232 16 126 4.8 9.7 0.00 2.90 0.00 90 1007.4
20260505205735 16 135 8.0 14.5 0.00 2.90 0.00 90 1007.4
20260505205239 16 135 3.2 16.1 0.00 2.90 0.00 91 1007.3
20260505204735 16 174 8.0 14.5 0.00 2.90 0.00 91 1007.4
20260505204232 16 137 9.7 16.1 0.00 2.90 0.00 91 1007.5